Le nostre stazioni meteo in Italia

Pubblicità
Il mio iltempo24.it
Trapani/Birgi, Italia (16429): Temperatura & dewpoint: 30.05.2020 20:00:00 - 05.06.2020 20:00:00 (CEST)Trapani/Birgi, Italia (16429): velocità del vento: 30.05.2020 20:00:00 - 05.06.2020 20:00:00 (CEST)Trapani/Birgi, Italia (16429): direzione del vento: 30.05.2020 20:00:00 - 05.06.2020 20:00:00 (CEST)Trapani/Birgi, Italia (16429): reduced air pressure: 30.05.2020 20:00:00 - 05.06.2020 20:00:00 (CEST)Trapani/Birgi, Italia (16429): visibility: 30.05.2020 20:00:00 - 05.06.2020 20:00:00 (CEST)Trapani/Birgi, Italia (16429): ore di luce: 30.05.2020 20:00:00 - 05.06.2020 20:00:00 (CEST)
Data & Tempo tt [°C] td [°C] ff [km/h] ff [kn] dd ppp [hPa] vv [km] sd [min]
05.06.2020 20:00:00 - - - - - - - -
05.06.2020 19:00:00 23,0 19,2 28 15 ONO 1006,6 22 60
05.06.2020 18:00:00 23,4 19,5 31 17 ONO 1006,3 20 60
05.06.2020 17:00:00 23,8 18,9 35 19 ONO 1006,4 22 60
05.06.2020 16:00:00 23,4 18,5 37 20 ONO 1006,1 25 60
05.06.2020 15:00:00 23,0 18,5 35 19 ONO 1006,3 22 60
05.06.2020 14:00:00 21,6 19,0 16 9 SO 1006,4 20 60
05.06.2020 13:00:00 19,8 17,2 8 4 SSO 1006,9 20 0
05.06.2020 12:00:00 19,0 16,0 4 2 N 1007,1 20 0
05.06.2020 11:00:00 18,8 16,2 9 5 ONO 1006,7 8 0
05.06.2020 10:00:00 20,0 17,4 4 2 N 1006,2 5 0
05.06.2020 09:00:00 20,0 18,0 8 4 SO 1006,8 5 0
05.06.2020 08:00:00 20,0 18,1 18 10 OSO 1007,4 7 0
05.06.2020 07:00:00 20,0 18,8 13 7 O 1005,9 16 -
05.06.2020 06:00:00 20,0 17,6 13 7 O 1005,7 12 -
05.06.2020 05:00:00 20,0 17,4 11 6 SO 1006,1 12 -
05.06.2020 04:00:00 20,2 17,6 26 14 SSE 1005,1 12 -
05.06.2020 03:00:00 20,0 18,0 34 18 SSE 1004,1 12 -
05.06.2020 02:00:00 20,2 17,6 16 9 SSE 1007,0 12 -
05.06.2020 01:00:00 21,0 19,5 18 10 S 1008,6 12 -
05.06.2020 00:00:00 20,8 19,3 44 24 S 1008,1 12 -
04.06.2020 23:00:00 22,0 18,4 29 16 S 1006,5 12 -
04.06.2020 22:00:00 22,8 18,4 28 15 S 1005,7 16 -
04.06.2020 21:00:00 23,4 15,5 42 23 SSE 1005,2 16 -
04.06.2020 20:00:00 24,4 15,6 42 23 SSE 1005,0 16 36
04.06.2020 19:00:00 26,0 15,7 46 25 SSE 1005,6 20 60
04.06.2020 18:00:00 26,6 15,6 48 26 SSE 1005,9 20 60
04.06.2020 17:00:00 27,4 15,7 50 27 SSE 1006,4 20 60
04.06.2020 16:00:00 27,4 16,4 50 27 SSE 1006,9 20 60
04.06.2020 15:00:00 28,0 16,3 48 26 S 1007,3 20 60
04.06.2020 14:00:00 27,0 16,6 52 28 SSE 1006,9 20 60
04.06.2020 13:00:00 26,4 17,7 52 28 S 1008,8 20 60
04.06.2020 12:00:00 26,0 17,4 46 25 S 1008,9 20 60
04.06.2020 11:00:00 26,0 16,3 42 23 S 1008,7 20 60
04.06.2020 10:00:00 25,0 16,4 39 21 SSE 1008,7 20 60
04.06.2020 09:00:00 23,0 16,5 35 19 SSE 1009,2 18 60
04.06.2020 08:00:00 19,8 16,4 34 18 SSE 1009,3 18 60
04.06.2020 07:00:00 18,0 16,0 24 13 SE 1009,1 20 -
04.06.2020 06:00:00 17,0 15,2 21 11 SSE 1009,4 20 -
04.06.2020 05:00:00 17,0 15,4 13 7 SE 1010,0 20 -
04.06.2020 04:00:00 17,0 15,4 15 8 SE 1010,1 10 -
04.06.2020 03:00:00 17,2 15,7 13 7 SE 1010,7 20 -
04.06.2020 02:00:00 17,2 15,9 13 7 SE 1010,8 20 -
04.06.2020 01:00:00 18,0 16,9 13 7 SSE 1011,0 20 -
04.06.2020 00:00:00 18,0 17,2 11 6 SSE 1011,0 20 -
03.06.2020 23:00:00 19,0 17,7 11 6 SSE 1010,7 25 -
03.06.2020 22:00:00 20,0 16,8 9 5 SE 1010,3 25 -
03.06.2020 21:00:00 22,0 17,8 2 1 NNO 1010,1 25 -
03.06.2020 20:00:00 22,8 17,3 9 5 N 1010,2 25 48
03.06.2020 19:00:00 22,8 18,5 16 9 N 1010,6 20 60
03.06.2020 18:00:00 23,0 18,1 21 11 NNO 1010,8 20 60
03.06.2020 17:00:00 23,2 18,5 21 11 N 1011,5 20 60
03.06.2020 16:00:00 23,6 18,7 22 12 NNO 1011,9 20 60
03.06.2020 15:00:00 23,8 18,7 26 14 NNO 1012,0 20 60
03.06.2020 14:00:00 24,0 18,4 24 13 NNO 1012,0 20 60
03.06.2020 13:00:00 23,4 17,6 24 13 NNO 1012,3 20 60
03.06.2020 12:00:00 24,4 18,1 24 13 N 1012,3 20 60
03.06.2020 11:00:00 23,4 16,7 22 12 NNO 1012,5 20 60
03.06.2020 10:00:00 22,4 15,7 21 11 N 1012,4 20 60
03.06.2020 09:00:00 22,0 16,3 15 8 N 1012,5 20 60
03.06.2020 08:00:00 19,4 15,5 5 3 ENE 1012,4 20 48
03.06.2020 07:00:00 16,8 14,8 8 4 SSE 1012,0 25 0
03.06.2020 06:00:00 17,8 15,8 5 3 ENE 1012,0 20 -
03.06.2020 05:00:00 18,6 16,0 5 3 SSO 1012,0 20 -
03.06.2020 04:00:00 18,8 14,9 2 1 SO 1012,1 10 -
03.06.2020 03:00:00 19,8 15,5 4 2 N 1012,1 20 -
03.06.2020 02:00:00 20,8 16,4 9 5 NNE 1012,4 20 -
03.06.2020 01:00:00 20,8 16,8 11 6 N 1013,0 20 -
03.06.2020 00:00:00 21,2 16,4 13 7 N 1013,1 20 -
02.06.2020 23:00:00 21,0 17,0 8 4 NNO 1013,3 25 -
02.06.2020 22:00:00 21,2 17,0 4 2 NNE 1013,1 25 -
02.06.2020 21:00:00 21,2 16,8 18 10 NNE 1012,9 25 -
02.06.2020 20:00:00 21,6 17,0 22 12 N 1013,0 25 30
02.06.2020 19:00:00 22,2 16,5 24 13 N 1013,0 25 60
02.06.2020 18:00:00 23,0 17,2 22 12 N 1013,6 25 60
02.06.2020 17:00:00 23,0 17,2 28 15 N 1014,0 25 60
02.06.2020 16:00:00 23,0 16,8 29 16 NNO 1014,1 25 60
02.06.2020 15:00:00 23,2 16,7 28 15 N 1014,2 25 60
02.06.2020 14:00:00 23,8 16,1 29 16 NNO 1014,4 25 60
02.06.2020 13:00:00 23,2 14,5 22 12 NNO 1015,1 25 60
02.06.2020 12:00:00 23,0 15,3 21 11 NNO 1015,2 25 60
02.06.2020 11:00:00 23,0 15,1 18 10 NNO 1015,2 25 60
02.06.2020 10:00:00 22,8 15,6 8 4 N 1015,2 25 60
02.06.2020 09:00:00 21,8 15,4 4 2 N 1015,2 25 60
02.06.2020 08:00:00 18,0 16,0 5 3 E 1015,1 20 60
02.06.2020 07:00:00 15,0 13,4 5 3 SE 1015,1 22 18
02.06.2020 06:00:00 15,0 13,4 8 4 SSE 1014,8 20 0
02.06.2020 05:00:00 15,2 13,7 5 3 SSE 1015,0 12 -
02.06.2020 04:00:00 16,0 15,0 4 2 E 1015,1 12 -
02.06.2020 03:00:00 16,6 15,8 4 2 ESE 1015,1 12 -
02.06.2020 02:00:00 17,4 16,1 4 2 E 1015,6 12 -
02.06.2020 01:00:00 17,0 16,2 4 2 E 1015,6 12 -
02.06.2020 00:00:00 18,0 15,8 8 4 ENE 1015,4 12 -
01.06.2020 23:00:00 18,8 16,4 5 3 E 1015,6 12 -
01.06.2020 22:00:00 20,0 17,4 13 7 N 1015,4 12 -
01.06.2020 21:00:00 20,4 17,2 13 7 NNE 1015,5 16 -
01.06.2020 20:00:00 21,4 17,4 22 12 NNE 1014,3 10 18
01.06.2020 19:00:00 22,2 16,5 28 15 N 1014,4 30 60
01.06.2020 18:00:00 22,6 16,4 29 16 N 1014,5 30 60
01.06.2020 17:00:00 23,2 16,7 28 15 N 1014,8 30 60
01.06.2020 16:00:00 23,0 16,3 31 17 N 1015,0 30 60
01.06.2020 15:00:00 23,6 15,9 26 14 N 1015,2 30 60
01.06.2020 14:00:00 23,2 16,0 29 16 N 1015,5 30 60
01.06.2020 13:00:00 22,4 16,0 28 15 N 1016,1 30 60
01.06.2020 12:00:00 22,4 16,7 26 14 NNO 1016,2 30 60
01.06.2020 11:00:00 21,6 15,4 24 13 N 1016,0 30 60
01.06.2020 10:00:00 21,6 15,0 18 10 N 1015,9 30 60
01.06.2020 09:00:00 20,8 14,0 15 8 NE 1015,9 30 60
01.06.2020 08:00:00 14,8 13,0 5 3 ENE 1016,0 30 60
01.06.2020 07:00:00 12,0 11,1 4 2 N 1015,8 18 6
01.06.2020 06:00:00 12,0 11,1 5 3 SSE 1015,4 10 -
01.06.2020 05:00:00 12,0 11,2 5 3 SE 1015,8 14 -
01.06.2020 04:00:00 13,0 11,9 5 3 ESE 1015,6 14 -
01.06.2020 03:00:00 12,4 11,1 4 2 N 1016,1 14 -
01.06.2020 02:00:00 15,0 13,4 8 4 E 1016,1 14 -
01.06.2020 01:00:00 16,4 14,8 4 2 ENE 1016,1 14 -
01.06.2020 00:00:00 16,8 15,0 4 2 N 1016,4 14 -
31.05.2020 23:00:00 17,4 14,7 8 4 NE 1016,1 16 -
31.05.2020 22:00:00 18,2 14,5 9 5 NNE 1015,8 14 -
31.05.2020 21:00:00 19,8 15,7 13 7 N 1015,3 14 -
31.05.2020 20:00:00 20,4 14,7 15 8 N 1015,2 16 48
31.05.2020 19:00:00 21,4 14,5 18 10 N 1015,2 25 60
31.05.2020 18:00:00 21,8 14,7 21 11 N 1014,9 25 60
31.05.2020 17:00:00 22,0 14,6 22 12 N 1015,0 25 60
31.05.2020 16:00:00 22,0 14,4 21 11 NNO 1015,2 25 60
31.05.2020 15:00:00 22,4 14,8 22 12 N 1015,4 25 60
31.05.2020 14:00:00 22,0 14,6 16 9 N 1015,7 25 60
31.05.2020 13:00:00 22,0 15,1 22 12 N 1015,7 25 60
31.05.2020 12:00:00 22,0 16,3 18 10 NNO 1015,7 25 60
31.05.2020 11:00:00 21,4 15,7 18 10 N 1015,5 25 60
31.05.2020 10:00:00 21,0 18,0 13 7 N 1015,2 25 60
31.05.2020 09:00:00 19,8 17,2 13 7 N 1014,9 25 42
31.05.2020 08:00:00 17,0 15,0 5 3 NNE 1015,1 25 0
31.05.2020 07:00:00 17,0 15,4 18 10 N 1014,4 16 -
31.05.2020 06:00:00 16,6 15,1 8 4 SE 1014,1 16 -
31.05.2020 05:00:00 16,4 14,8 9 5 SE 1014,1 20 -
31.05.2020 04:00:00 16,2 14,7 5 3 ESE 1014,2 12 -
31.05.2020 03:00:00 16,2 14,5 5 3 ESE 1014,7 12 -
31.05.2020 02:00:00 16,8 15,0 5 3 SE 1014,9 12 -
31.05.2020 01:00:00 17,2 15,2 5 3 SE 1014,9 12 -
31.05.2020 00:00:00 17,6 15,2 8 4 SSE 1014,9 12 -
30.05.2020 23:00:00 18,8 15,7 5 3 E 1014,9 12 -
30.05.2020 22:00:00 20,0 15,9 5 3 N 1014,5 12 -
30.05.2020 21:00:00 20,4 16,0 11 6 NNE 1013,7 12 -
30.05.2020 20:00:00 22,0 15,8 18 10 N 1013,5 16 30

tt = Temperatura
td = dewpoint
ff = velocità del vento
dd = direzione del vento
ppp = reduced air pressure
vv = visibility
sd = ore di luce

Stazioni seguenti

WeatherPro
AMSI
MeteoEarth